Date String (YYYY-MM-DD hh:mm:ss) UTC,Instrument flags,Ambient pressure (hPa),Sample flow (lpm),Bypass flow (lpm),Sample temperature (°C),Ambient temperature (°C),ASC tube jacket temperature (°C),LED temperature (°C),Box temperature (°C),Sample RH (%),Span deviation,Mass concentration (μg/m³),Mass concentration (μg/m³),Mass concentration (μg/m³)
DateTimeUTC,F1_M11,P_M11,Q1_M11,Q2_M11,T1_M11,T2_M11,T3_M11,T4_M11,T5_M11,U1_M11,ZSPAN_M11,X0_M11,X2_M11,X1_M11
2022-07-02 22:00:00,,0827.4,5.00,0.00,29.2,27.4,00.0,37.9,31.1,22.1,0000.0,0009.56,0004.27,0003.42
2022-07-02 22:01:00,,0827.4,5.00,0.00,29.2,27.6,00.0,37.9,31.1,22.4,0000.0,0009.99,0004.34,0003.40
2022-07-02 22:02:00,,0827.4,5.00,0.00,29.2,27.8,00.0,37.9,31.2,22.5,0000.0,0010.07,0004.37,0003.40
2022-07-02 22:03:00,,0827.4,5.00,0.00,29.3,28.0,00.0,37.9,31.3,22.1,0000.0,0010.20,0004.38,0003.40
2022-07-02 22:04:00,,0827.4,5.00,0.00,29.3,28.2,00.0,38.0,31.3,22.0,0000.0,0009.68,0004.35,0003.40
2022-07-02 22:05:00,,0827.5,4.99,0.00,29.3,28.3,00.0,38.0,31.4,21.7,0000.0,0009.71,0004.34,0003.39
2022-07-02 22:06:00,,0827.4,5.00,0.00,29.3,27.8,00.0,37.9,31.3,21.8,0000.0,0009.81,0004.35,0003.40
2022-07-02 22:07:00,,0827.4,4.99,0.00,29.3,27.1,00.0,37.9,31.1,22.0,0000.0,0009.97,0004.35,0003.39
2022-07-02 22:08:00,,0827.4,5.01,0.00,29.2,27.0,00.0,37.9,31.1,21.8,0000.0,0009.98,0004.34,0003.39
2022-07-02 22:09:00,,0827.4,4.99,0.00,29.2,27.0,00.0,37.9,31.0,21.9,0000.0,0009.35,0004.33,0003.39
2022-07-02 22:10:00,,0827.4,4.99,0.00,29.2,27.2,00.0,37.9,31.0,22.1,0000.0,0009.12,0004.34,0003.39
2022-07-02 22:11:00,,0827.4,4.99,0.00,29.2,27.4,00.0,37.9,31.1,22.0,0000.0,0009.31,0004.29,0003.39
2022-07-02 22:12:00,,0827.4,5.01,0.00,29.2,27.6,00.0,37.9,31.1,22.1,0000.0,0009.13,0004.26,0003.40
2022-07-02 22:13:00,,0827.4,5.01,0.00,29.2,27.8,00.0,37.9,31.2,22.2,0000.0,0009.08,0004.21,0003.38
2022-07-02 22:14:00,,0827.4,5.00,0.00,29.2,28.0,00.0,38.0,31.3,22.1,0000.0,0008.91,0004.17,0003.37
2022-07-02 22:15:00,,0827.3,5.00,0.00,29.3,28.2,00.0,38.0,31.3,22.1,0000.0,0008.97,0004.19,0003.38
2022-07-02 22:16:00,,0827.4,4.99,0.00,29.3,28.3,00.0,38.0,31.4,22.2,0000.0,0009.34,0004.18,0003.37
2022-07-02 22:17:00,,0827.3,5.01,0.00,29.4,28.0,00.0,38.0,31.3,22.0,0000.0,0009.90,0004.23,0003.38
2022-07-02 22:18:00,,0827.3,5.00,0.00,29.3,27.3,00.0,37.9,31.2,22.1,0000.0,0010.17,0004.22,0003.37
2022-07-02 22:19:00,,0827.4,5.00,0.00,29.3,27.0,00.0,37.9,31.1,22.3,0000.0,0010.49,0004.25,0003.38
2022-07-02 22:20:00,,0827.4,5.00,0.00,29.2,27.1,00.0,37.9,31.0,22.3,0000.0,0010.65,0004.31,0003.37
2022-07-02 22:21:00,,0827.4,5.00,0.00,29.2,27.2,00.0,37.9,31.0,22.3,0000.0,0011.00,0004.32,0003.38
2022-07-02 22:22:00,,0827.4,4.99,0.00,29.2,27.4,00.0,37.9,31.1,22.2,0000.0,0010.97,0004.40,0003.40
2022-07-02 22:23:00,,0827.4,4.99,0.00,29.2,27.6,00.0,37.9,31.1,22.3,0000.0,0010.69,0004.42,0003.42
2022-07-02 22:24:00,,0827.4,5.01,0.00,29.2,27.8,00.0,37.9,31.2,22.4,0000.0,0010.48,0004.39,0003.45
2022-07-02 22:25:00,,0827.4,5.00,0.00,29.3,28.0,00.0,38.0,31.3,22.3,0000.0,0010.59,0004.46,0003.47
2022-07-02 22:26:00,,0827.5,5.00,0.00,29.3,28.2,00.0,38.0,31.3,22.3,0000.0,0010.70,0004.50,0003.50
2022-07-02 22:27:00,,0827.5,5.00,0.00,29.3,28.3,00.0,38.0,31.4,22.4,0000.0,0010.54,0004.52,0003.52
2022-07-02 22:28:00,,0827.5,5.00,0.00,29.4,28.4,00.0,38.0,31.4,22.3,0000.0,0010.00,0004.50,0003.54
2022-07-02 22:29:00,,0827.5,4.99,0.00,29.4,27.9,00.0,38.0,31.3,22.3,0000.0,0010.35,0004.54,0003.56
2022-07-02 22:30:00,,0827.4,5.00,0.00,29.3,27.2,00.0,37.9,31.2,22.2,0000.0,0009.93,0004.50,0003.59
2022-07-02 22:31:00,,0827.4,4.99,0.00,29.3,27.1,00.0,37.9,31.1,22.2,0000.0,0009.81,0004.47,0003.61
2022-07-02 22:32:00,,0827.4,4.99,0.00,29.3,27.1,00.0,37.9,31.1,22.6,0000.0,0009.61,0004.46,0003.63
2022-07-02 22:33:00,,0827.4,5.01,0.00,29.2,27.3,00.0,37.9,31.1,22.8,0000.0,0009.89,0004.43,0003.62
2022-07-02 22:34:00,,0827.4,5.00,0.00,29.2,27.5,00.0,37.9,31.1,22.9,0000.0,0009.98,0004.45,0003.63
2022-07-02 22:35:00,,0827.4,4.99,0.00,29.2,27.7,00.0,38.0,31.2,23.2,0000.0,0010.15,0004.50,0003.64
2022-07-02 22:36:00,,0827.4,5.01,0.00,29.3,27.9,00.0,38.0,31.3,22.6,0000.0,0010.14,0004.50,0003.65
2022-07-02 22:37:00,,0827.4,5.00,0.00,29.3,28.1,00.0,38.0,31.3,22.4,0000.0,0010.26,0004.47,0003.64
2022-07-02 22:38:00,,0827.5,5.00,0.00,29.3,28.2,00.0,38.0,31.4,22.7,0000.0,0010.82,0004.45,0003.63
2022-07-02 22:39:00,,0827.4,5.00,0.00,29.4,28.4,00.0,38.0,31.4,23.9,0000.0,0010.82,0004.45,0003.63
2022-07-02 22:40:00,,0827.4,5.00,0.00,29.4,28.0,00.0,38.0,31.4,23.6,0000.0,0010.19,0004.41,0003.62
2022-07-02 22:41:00,,0827.4,4.99,0.00,29.4,27.2,00.0,37.9,31.2,23.0,0000.0,0010.34,0004.44,0003.61
2022-07-02 22:42:00,,0827.4,5.00,0.00,29.3,27.0,00.0,37.9,31.1,23.2,0000.0,0010.28,0004.44,0003.61
2022-07-02 22:43:00,,0827.4,5.00,0.00,29.3,27.1,00.0,37.9,31.1,24.8,0000.0,0010.23,0004.42,0003.60
2022-07-02 22:44:00,,0827.5,5.00,0.00,29.2,27.2,00.0,37.9,31.1,24.9,0000.0,0010.21,0004.48,0003.61
2022-07-02 22:45:00,,0827.4,5.00,0.00,29.2,27.4,00.0,38.0,31.1,29.9,0000.0,0011.16,0004.56,0003.63
2022-07-02 22:46:00,,0827.3,5.01,0.00,29.3,27.6,00.0,38.0,31.2,31.6,0000.0,0012.33,0004.70,0003.68
2022-07-02 22:47:00,,0827.4,5.00,0.00,29.3,27.8,00.0,38.0,31.2,32.7,0000.0,0014.01,0004.82,0003.73
2022-07-02 22:48:00,,0827.4,5.01,0.00,29.3,28.0,00.0,38.0,31.3,34.4,0000.0,0014.92,0004.93,0003.78
2022-07-02 22:49:00,,0827.4,5.01,0.00,29.4,28.2,00.0,38.0,31.4,30.7,0000.0,0014.70,0005.04,0003.81
2022-07-02 22:50:00,,0827.5,5.00,0.00,29.5,28.3,00.0,38.0,31.5,30.6,0000.0,0014.83,0005.14,0003.84
2022-07-02 22:51:00,,0827.5,5.00,0.00,29.5,28.1,00.0,38.0,31.4,30.0,0000.0,0015.28,0005.25,0003.87
2022-07-02 22:52:00,,0827.6,4.99,0.00,29.5,27.4,00.0,38.0,31.3,34.0,0000.0,0015.25,0005.34,0003.92
2022-07-02 22:53:00,,0827.7,5.01,0.00,29.6,27.0,00.0,38.0,31.3,34.7,0000.0,0015.75,0005.43,0003.98
2022-07-02 22:54:00,,0827.6,4.99,0.00,29.7,27.0,00.0,38.0,31.3,31.6,0000.0,0016.09,0005.48,0004.01
2022-07-02 22:55:00,,0827.6,4.99,0.00,29.7,27.1,00.0,38.0,31.2,29.1,0000.0,0016.64,0005.53,0004.04
2022-07-02 22:56:00,,0827.6,5.00,0.00,29.7,27.3,00.0,38.0,31.2,28.2,0000.0,0016.57,0005.49,0004.03
2022-07-02 22:57:00,,0827.8,5.00,0.00,29.8,27.5,00.0,38.1,31.3,28.6,0000.0,0015.48,0005.41,0004.00
2022-07-02 22:58:00,,0827.6,5.00,0.00,29.8,27.7,00.0,38.1,31.3,26.9,0000.0,0013.86,0005.30,0003.97
2022-07-02 22:59:00,,0827.6,5.00,0.00,29.8,27.9,00.0,38.1,31.4,27.4,0000.0,0012.81,0005.16,0003.92
